OPS 4682 DEB, 38433

Orbit data source: Space-Track

OPS 4682 DEB, 38433 is space debris in LEO originally from a launch on Sat, 03 Apr 1965 UTC launched from the Air Force Western Test Range (AFWTR). Debris objects in space refer to the collection of defunct objects orbiting the Earth. Examples of debris include non-operational satellites, rocket bodies, and fragments generated from explosions, collisions, or faulty payload assembly.

Loading next visibility...
Identifier
38433, 1965-027EN
Orbit
LEO
Country
Flag of USUS
Related business
Manufacturer
Unknown
Mission
Spacecraft
Bus & Motor
Unknown
Mass
Unknown
Launch date (UTC)
1965-04-03 (61 years ago)
Launch vehicle
Unknown
Launch site
Air Force Western Test Range (AFWTR)
Object type
Payload
Rocket body
Debris
Shape & HBR
Unknown shape, 0.1 m
Radar Cross Section
Small (<0.1 m²)

Expand to show TLE details & history
Last TLE update: 2 days ago

TLE from 2 days ago
0 OPS 4682 DEB
1 38433U 65027EN  25300.43112301  .00000988  00000-0  27380-2 0  9993
2 38433  90.2569   7.6453 0030702  96.1544 264.3085 13.11920608601321
Epoch: 2025-10-27T10:20Z
TLE epoch observation values (Epoch: 2025-10-27T10:20:49.028Z)
Latitude
0.00007°
Longitude
176.40795°
Altitude
1,221.02 km
Speed
7.243 km/s
True Right ascension
00h 30m 34s
True Declination
0° 00' 00"
Sunlit
Object was in full shadow at epoch
Visualization orbit readout
Latitude
Unknown
Longitude
Unknown
Altitude
Unknown
Speed
Unknown
Apparent Right ascension
Unknown
Apparent Declination
Unknown
Sunlit
N/A
Visualization observer readout
Local Sidereal Time
10:37:06
Azimuth
Unknown
Elevation
Unknown
Doppler factor
Unknown
Orbital elements
Apogee altitude
1,236.15 km
Perigee altitude
1,189.538 km
Semi-major axis
7,590.981 km
Eccentricity
0.00307
Inclination
90.2569°
RAAN
7.6453°
Arg. of periapsis
96.1544°
True anomaly
263.95855°
Mean anomaly
264.3085°
Eccentric anomaly
264.13351°
Mean motion
3.28168 °/min
Orbital period
109.7 mins
BSTAR
0.002738
Loading maneuver chart data...
Computing Atmospheric mass density...
Loading historical data...
Loading historical data...
Loading historical data...
Loading historical data...
Loading historical data...
Loading historical data...
Loading historical data...

Documentation

Showing up to 5 results
|